Regional Weather Roundup
Issued by NWS

Home | Current Version | Previous Version | Text Only | Print | Product List | Glossary On
Versions: 1 2 3 4 5 6 7 8 9 10 11 12 13 14 15 16 17 18 19 20 21 22 23 24 25 26 27 28 29 30 31 32 33 34 35 36 37 38 39 40 41 42 43 44 45 46 47 48 49 50
000
ASUS43 KOAX 300210
RWRNE

WEATHER ROUNDUP FOR NEBRASKA
NATIONAL WEATHER SERVICE OMAHA NE
900 PM CDT SUN MAR 29 2015

NOTES: SATELLITE DATA IS BEING USED TO AUGMENT CLOUD COVER ABOVE
       12000 FEET.
       "FAIR" INDICATES FEW OR NO CLOUDS BELOW 12,000 FEET WITH NO
       SIGNIFICANT WEATHER AND/OR OBSTRUCTIONS TO VISIBILITY.

  * THESE STATIONS DO NOT REPORT WEATHER SUCH AS RAIN...SNOW OR FOG.

NEZ001>004-019>022-054>056-300300-
NEBRASKA PANHANDLE

CITY           SKY/WX    TMP DP  RH WIND       PRES   REMARKS
SCOTTSBLUFF    CLOUDY    52  23  32 E5        30.12R
ALLIANCE       MOCLDY    50  25  37 S8        30.11R
CHADRON        PTCLDY    48  28  46 SE6       30.06F
KIMBALL        PTCLDY    45  22  40 S7        30.13S
SIDNEY         CLEAR     45  24  43 S8        30.15S
$$

NEZ057>060-069>072-079>082-300300-
SOUTHWEST NEBRASKA

CITY           SKY/WX    TMP DP  RH WIND       PRES   REMARKS
NORTH PLATTE   PTCLDY    46  19  34 SE5       30.14R
IMPERIAL         N/A     48  19  31 SE6       30.16R
LEXINGTON      CLEAR     49  13  23 E5        30.16R
MCCOOK         PTCLDY    55  17  22 E5        30.16R
OGALLALA       CLEAR     49  19  31 CALM      30.14S
$$

NEZ005>010-023>029-035>040-094-300300-
NORTH CENTRAL NEBRASKA

CITY           SKY/WX    TMP DP  RH WIND       PRES   REMARKS
VALENTINE      MOCLDY    46  21  37 S6        30.10R
AINSWORTH      PTCLDY    47  21  35 CALM      30.11R
BROKEN BOW     CLEAR     39  15  37 CALM      30.14R
O`NEILL        CLEAR     48  22  35 W5        30.11S
ORD            CLEAR     41  14  33 CALM      30.13R
THEDFORD       PTCLDY    49  19  30 CALM      30.14R
$$

NEZ041-046>049-061>064-073>077-083>087-300300-
SOUTH CENTRAL NEBRASKA

CITY           SKY/WX    TMP DP  RH WIND       PRES   REMARKS
GRAND ISLAND   CLEAR     45  16  31 CALM      30.16R
AURORA         CLEAR     43  19  38 CALM      30.15R
HASTINGS       FAIR      47  14  26 CALM      30.15R
HEBRON         CLEAR     47  22  36 CALM      30.16R
HOLDREGE       CLEAR     46  11  24 CALM      30.16R
KEARNEY *      CLEAR     52  12  20 NW3       30.16R
YORK           CLEAR     48  21  34 CALM      30.15R
$$

NEZ011>018-030>034-042>045-300300-
NORTHEAST NEBRASKA

CITY           SKY/WX    TMP DP  RH WIND       PRES   REMARKS
NORFOLK        CLEAR     46  20  35 W6        30.11R
ALBION         CLEAR     41  19  39 CALM      30.13R
BLAIR          CLEAR     52  20  28 NW7       30.11R
COLUMBUS *     CLEAR     46  19  34 CALM      30.14R
FREMONT        FAIR      47  22  37 W3        30.12R
TEKAMAH        CLEAR     46  22  38 W20G31    30.10
WAYNE          CLEAR     45  19  36 W7        30.11R
$$

NEZ050>053-065>068-078-088>093-300300-
SOUTHEAST NEBRASKA

CITY           SKY/WX    TMP DP  RH WIND       PRES   REMARKS
LINCOLN        CLEAR     45  24  43 NW3       30.14R
OMAHA EPPLEY   CLEAR     55  21  26 W7        30.10R
BEATRICE       CLEAR     40  27  59 NW7       30.15R WCI  35
FALLS CITY     CLEAR     50  27  40 NW5       30.12R
NEBRASKA CITY  CLEAR     50  20  30 NW8       30.13R
PLATTSMOUTH    CLEAR     51  17  26 W7        30.11R
$$

NEZ044-045-051>053-067-300300-
OMAHA AREA

CITY           SKY/WX    TMP DP  RH WIND       PRES   REMARKS
OMAHA EPPLEY   CLEAR     55  21  26 W7        30.10R
BLAIR          CLEAR     52  20  28 NW7       30.11R
FREMONT        FAIR      47  22  37 W3        30.12R
MILLARD        CLEAR     54  22  29 CALM      30.11R
OFFUTT AFB     CLEAR     44  23  45 NW7       30.11R
PLATTSMOUTH    CLEAR     51  17  26 W7        30.11R
WAHOO          FAIR      51  21  30 NW5       30.12R
$$


USA.gov is the U.S. government's official web portal to all federal, state and local government web resources and services.